Stations météo

réclame
Mon MeteoGroup
Åsele, Suède (2254): Température de l'air & dewpoint: 20.09.2018 17:00:00 - 26.09.2018 17:00:00 (CEST)Åsele, Suède (2254): Vitesse du vent & gusts: 20.09.2018 17:00:00 - 26.09.2018 17:00:00 (CEST)Åsele, Suède (2254): Direction du vent: 20.09.2018 17:00:00 - 26.09.2018 17:00:00 (CEST)Åsele, Suède (2254): reduced air pressure: 20.09.2018 17:00:00 - 26.09.2018 17:00:00 (CEST)Åsele, Suède (2254): visibility: 20.09.2018 17:00:00 - 26.09.2018 17:00:00 (CEST)Åsele, Suède (2254): Quantités de précipitations: 20.09.2018 17:00:00 - 26.09.2018 17:00:00 (CEST)
Date & Time tt [°C] td [°C] ff [km/h] ff [knt] fx [km/h] fx [knt] dd ppp [hPa] vv [km] rr [mm]
26.09.2018 17:00:00 - - - - - - - - - -
26.09.2018 16:00:00 7,8 3,1 27 15 59 32 W 985,0 26 0,1
26.09.2018 15:00:00 8,2 2,0 29 15 66 35 WSW 984,9 35 0,0
26.09.2018 14:00:00 8,2 2,0 27 15 54 29 WSW 985,4 39 0,0
26.09.2018 13:00:00 8,2 2,2 20 11 54 29 WSW 986,4 33 0,0
26.09.2018 12:00:00 7,1 3,3 16 8 38 21 WSW 987,8 37 0,0
26.09.2018 11:00:00 5,4 3,4 13 7 53 29 W 988,9 32 0,2
26.09.2018 10:00:00 6,4 5,8 15 8 35 19 SW 988,5 39 0,0
26.09.2018 09:00:00 5,7 5,4 18 10 34 18 SSW 989,1 13 1,0
26.09.2018 08:00:00 5,6 5,3 13 7 28 15 SSW 990,7 8 2,1
26.09.2018 07:00:00 5,6 5,2 14 7 27 14 SSW 992,8 9 0,7
26.09.2018 06:00:00 5,7 4,7 5 3 19 11 SSW 994,8 32 0,0
26.09.2018 05:00:00 5,5 4,0 10 5 23 12 SSW 997,4 50 0,0
26.09.2018 04:00:00 5,7 3,7 6 4 21 11 SSW 999,2 50 0,0
26.09.2018 03:00:00 5,8 3,8 4 2 16 9 S 1001,2 50 0,1
26.09.2018 02:00:00 5,6 3,8 5 3 14 8 SSW 1003,1 50 0,0
26.09.2018 01:00:00 5,8 4,8 3 2 18 10 S 1004,8 50 0,0
26.09.2018 00:00:00 6,4 4,9 9 5 32 17 SW 1006,4 50 0,0
25.09.2018 23:00:00 7,5 3,4 14 8 34 19 WSW 1007,5 50 0,0
25.09.2018 22:00:00 7,4 4,0 10 6 26 14 SW 1008,3 50 0,0
25.09.2018 21:00:00 5,8 4,3 8 4 21 12 WSW 1009,1 50 0,0
25.09.2018 20:00:00 5,7 4,3 6 3 24 13 WSW 1010,3 50 0,0
25.09.2018 19:00:00 5,9 3,7 8 4 32 17 WSW 1011,2 35 0,0
25.09.2018 18:00:00 7,4 3,1 15 8 31 17 WSW 1011,6 39 0,0
25.09.2018 17:00:00 8,3 3,1 13 7 31 17 WSW 1011,7 34 0,0
25.09.2018 16:00:00 8,4 3,2 10 5 31 17 WSW 1012,0 39 0,0
25.09.2018 15:00:00 8,4 3,2 14 7 36 19 WSW 1012,5 41 0,0
25.09.2018 14:00:00 7,6 2,9 16 9 41 22 WSW 1012,8 48 0,0
25.09.2018 13:00:00 8,3 2,7 17 9 43 23 SW 1012,6 39 0,0
25.09.2018 12:00:00 6,9 2,6 11 6 29 16 WSW 1014,4 47 0,0
25.09.2018 11:00:00 5,9 1,8 12 6 28 15 WSW 1014,2 43 0,0
25.09.2018 10:00:00 4,5 1,4 9 5 27 14 WSW 1014,7 46 0,0
25.09.2018 09:00:00 3,1 1,0 7 4 25 13 W 1015,5 50 0,0
25.09.2018 08:00:00 2,7 0,6 10 5 23 12 WSW 1015,4 49 0,0
25.09.2018 07:00:00 1,4 -0,1 7 4 23 13 W 1015,8 50 0,0
25.09.2018 06:00:00 1,0 -0,2 9 5 18 10 WSW 1016,3 50 0,0
25.09.2018 05:00:00 1,1 -0,2 6 3 16 9 W 1016,6 50 0,0
25.09.2018 04:00:00 -0,5 -1,3 3 2 14 8 SW 1016,8 50 0,0
25.09.2018 03:00:00 0,9 -0,6 10 5 19 11 W 1016,7 50 0,0
25.09.2018 02:00:00 -0,1 -1,1 6 4 17 9 W 1016,8 50 0,0
25.09.2018 01:00:00 -0,4 -1,8 9 5 21 11 W 1016,7 50 0,0
25.09.2018 00:00:00 -0,6 -2,3 5 3 22 12 WSW 1016,3 50 0,0
24.09.2018 23:00:00 0,2 -2,2 9 5 22 12 W 1015,9 50 0,0
24.09.2018 22:00:00 0,7 -2,2 11 6 23 12 W 1015,2 50 0,0
24.09.2018 21:00:00 1,2 -1,9 9 5 19 11 W 1014,7 50 0,0
24.09.2018 20:00:00 2,7 -2,6 13 7 32 17 WNW 1013,8 50 0,0
24.09.2018 19:00:00 3,3 -2,7 11 6 31 17 W 1012,6 50 0,0
24.09.2018 18:00:00 4,9 -3,4 11 6 38 20 WNW 1011,7 50 0,0
24.09.2018 17:00:00 5,5 -4,1 17 9 46 25 NW 1010,9 50 0,0
24.09.2018 16:00:00 5,8 -3,6 17 9 43 23 WNW 1009,9 50 0,0
24.09.2018 15:00:00 7,2 -4,2 19 11 41 22 WNW 1008,8 44 0,0
24.09.2018 14:00:00 5,9 -3,7 19 10 48 26 WNW 1008,2 50 0,0
24.09.2018 13:00:00 6,2 -2,7 17 9 47 25 WNW 1007,3 43 0,0
24.09.2018 12:00:00 5,6 -2,7 18 10 37 20 WNW 1006,4 38 0,0
24.09.2018 11:00:00 4,5 -1,9 15 8 39 21 W 1005,5 44 0,0
24.09.2018 10:00:00 3,4 -1,4 12 7 32 18 W 1004,5 44 0,0
24.09.2018 09:00:00 3,1 -1,8 14 8 32 18 W 1003,6 38 0,0
24.09.2018 08:00:00 2,8 -2,1 12 6 29 16 W 1002,7 40 0,0
24.09.2018 07:00:00 2,8 -0,8 11 6 28 15 W 1001,8 45 0,0
24.09.2018 06:00:00 3,2 -0,8 13 7 31 17 W 1001,0 37 0,0
24.09.2018 05:00:00 3,2 -0,1 12 7 31 17 W 1000,3 50 0,0
24.09.2018 04:00:00 3,3 0,2 11 6 34 18 W 999,2 50 0,0
24.09.2018 03:00:00 3,4 0,3 12 7 32 17 W 998,4 50 0,0
24.09.2018 02:00:00 3,6 0,5 13 7 39 21 W 997,5 50 0,0
24.09.2018 01:00:00 3,5 0,5 10 6 34 18 W 996,8 50 0,0
24.09.2018 00:00:00 3,5 0,5 11 6 29 16 W 996,2 50 0,0
23.09.2018 23:00:00 3,8 0,5 12 7 31 17 W 995,5 50 0,0
23.09.2018 22:00:00 4,0 0,5 11 6 42 23 W 994,9 50 0,0
23.09.2018 21:00:00 4,6 0,4 16 9 42 23 W 994,4 50 0,0
23.09.2018 20:00:00 4,7 0,3 14 7 37 20 W 993,9 45 0,0
23.09.2018 19:00:00 5,0 0,2 16 8 39 21 W 993,7 50 0,0
23.09.2018 18:00:00 5,4 0,4 14 8 41 22 W 993,5 41 0,0
23.09.2018 17:00:00 6,3 0,2 14 8 43 23 W 993,2 40 0,0
23.09.2018 16:00:00 7,3 0,5 15 8 42 23 WSW 992,6 39 0,0
23.09.2018 15:00:00 7,4 -0,3 21 11 44 24 W 992,3 41 0,0
23.09.2018 14:00:00 8,0 1,4 18 10 37 20 WSW 991,6 48 0,0
23.09.2018 13:00:00 8,2 0,7 14 8 36 19 W 991,0 44 0,0
23.09.2018 12:00:00 7,4 0,8 15 8 38 21 W 990,6 39 0,0
23.09.2018 11:00:00 7,0 0,7 16 9 43 23 WSW 989,9 43 0,0
23.09.2018 10:00:00 6,8 0,7 15 8 46 25 W 989,4 42 0,0
23.09.2018 09:00:00 6,4 1,5 11 6 37 20 W 988,8 50 0,0
23.09.2018 08:00:00 5,6 2,1 13 7 29 15 W 988,5 50 0,0
23.09.2018 07:00:00 4,8 2,2 10 5 26 14 WSW 987,8 50 0,0
23.09.2018 06:00:00 4,9 2,4 10 6 29 16 WSW 987,3 50 0,0
23.09.2018 05:00:00 4,8 3,0 9 5 27 15 WSW 987,2 50 0,0
23.09.2018 04:00:00 4,8 3,3 8 5 30 16 SW 987,3 50 0,0
23.09.2018 03:00:00 5,1 3,4 7 4 23 12 SW 986,8 50 0,0
23.09.2018 02:00:00 6,0 4,2 8 4 28 15 WSW 986,5 50 0,0
23.09.2018 01:00:00 6,4 4,1 11 6 34 18 SW 985,8 50 0,0
23.09.2018 00:00:00 7,1 4,4 14 8 38 21 SW 985,0 50 0,0
22.09.2018 23:00:00 7,9 4,3 17 9 37 20 SW 984,5 50 0,0
22.09.2018 22:00:00 8,2 4,6 18 10 41 22 SW 983,8 50 0,0
22.09.2018 21:00:00 8,4 4,6 19 10 38 21 SW 983,3 50 0,0
22.09.2018 20:00:00 8,5 4,5 19 10 42 23 SW 982,4 50 0,0
22.09.2018 19:00:00 9,1 4,7 16 9 40 22 SW 981,9 50 0,0
22.09.2018 18:00:00 9,4 4,6 21 11 50 27 SW 981,1 50 0,0
22.09.2018 17:00:00 9,5 4,5 18 10 40 21 SW 980,6 48 0,0
22.09.2018 16:00:00 9,5 4,7 21 11 41 22 SW 979,8 50 0,0
22.09.2018 15:00:00 9,8 5,6 17 9 39 21 SW 979,2 50 0,0
22.09.2018 14:00:00 8,6 5,7 16 9 39 21 SW 978,8 50 0,0
22.09.2018 13:00:00 7,6 6,2 14 8 29 16 SW 978,6 29 0,0
22.09.2018 12:00:00 8,2 6,0 14 7 34 19 SW 977,8 48 0,0
22.09.2018 11:00:00 8,8 8,3 10 6 27 14 SW 976,9 41 0,4
22.09.2018 10:00:00 8,0 7,6 7 4 23 12 S 976,5 6 1,0
22.09.2018 09:00:00 8,0 7,6 7 4 26 14 SSE 976,5 10 0,3
22.09.2018 08:00:00 7,8 7,2 9 5 21 11 SSE 977,0 16 0,1
22.09.2018 07:00:00 7,6 6,7 6 4 26 14 SSE 977,8 39 1,4
22.09.2018 06:00:00 8,2 7,3 8 4 18 10 SSE 978,4 28 0,0
22.09.2018 05:00:00 8,6 7,7 4 2 40 21 S 979,4 43 0,0
22.09.2018 04:00:00 10,0 9,1 10 5 26 14 SSE 979,4 21 0,0
22.09.2018 03:00:00 9,7 8,9 5 3 31 17 SSE 979,8 29 1,5
22.09.2018 02:00:00 12,1 10,8 9 5 22 12 SE 980,0 21 0,0
22.09.2018 01:00:00 12,7 11,3 9 5 21 11 SSE 981,5 24 0,0
22.09.2018 00:00:00 12,8 11,9 7 4 25 13 SSE 982,2 16 0,0
21.09.2018 23:00:00 12,9 12,4 8 4 24 13 SSE 982,8 12 0,1
21.09.2018 22:00:00 12,3 12,1 6 3 17 9 SSE 984,1 8 0,0
21.09.2018 21:00:00 11,5 11,5 6 4 17 9 SSE 985,4 6 0,0
21.09.2018 20:00:00 9,8 9,8 8 4 16 9 ESE 987,0 3,6 0,0
21.09.2018 19:00:00 9,2 9,2 8 5 19 11 SE 988,5 3,6 0,1
21.09.2018 18:00:00 8,5 8,2 7 4 19 10 SE 990,2 28 0,1
21.09.2018 17:00:00 8,0 7,4 8 4 19 10 SE 991,6 15 0,9
21.09.2018 16:00:00 8,7 7,0 9 5 20 11 SE 993,0 14 0,3
21.09.2018 15:00:00 10,8 4,7 5 3 21 11 SSE 993,9 33 0,0
21.09.2018 14:00:00 11,2 4,2 6 4 25 14 SSE 994,9 32 0,0
21.09.2018 13:00:00 12,4 4,1 8 4 25 13 S 995,4 30 0,0
21.09.2018 12:00:00 10,8 4,3 7 4 21 12 SSW 996,2 42 0,0
21.09.2018 11:00:00 9,8 3,1 4 2 18 10 SSE 997,0 38 0,0
21.09.2018 10:00:00 9,2 3,2 7 4 17 9 SSW 997,2 38 0,0
21.09.2018 09:00:00 7,6 2,5 3 2 12 7 S 997,6 43 0,0
21.09.2018 08:00:00 5,0 2,0 3 1 13 7 SSE 997,9 46 0,0
21.09.2018 07:00:00 3,5 1,5 5 3 12 6 SSE 998,1 50 0,0
21.09.2018 06:00:00 3,4 1,4 4 2 12 6 SSW 998,0 50 0,0
21.09.2018 05:00:00 1,9 0,9 3 1 12 6 ESE 997,8 26 0,0
21.09.2018 04:00:00 1,5 0,6 2 1 9 5 NE 997,9 50 0,0
21.09.2018 03:00:00 5,4 2,2 3 2 18 10 SSW 997,2 50 0,0
21.09.2018 02:00:00 6,2 2,5 6 4 23 12 SSW 996,5 50 0,0
21.09.2018 01:00:00 6,2 3,2 12 6 24 13 SW 996,6 50 0,0
21.09.2018 00:00:00 6,5 4,2 9 5 21 11 SSW 995,7 50 0,0
20.09.2018 23:00:00 7,4 4,7 13 7 22 12 SW 995,1 50 0,0
20.09.2018 22:00:00 7,7 5,0 9 5 19 10 SSW 994,6 50 0,0
20.09.2018 21:00:00 7,3 4,9 5 3 32 18 WSW 995,1 50 0,1
20.09.2018 20:00:00 8,6 5,0 12 7 31 17 W 994,8 31 0,1
20.09.2018 19:00:00 9,1 4,9 14 8 36 19 W 993,4 39 0,1
20.09.2018 18:00:00 8,4 7,3 4 2 14 8 WNW 993,0 50 0,0
20.09.2018 17:00:00 8,5 7,7 3 1 29 16 ESE 992,8 49 0,6

tt = Température de l'air
td = dewpoint
ff = Vitesse du vent
fx = gusts
dd = Direction du vent
ppp = reduced air pressure
vv = visibility
rr = Quantités de précipitations

stations d'obs. à proximité